Clarksville, TN

8:55 PM CDT on March 28, 2017 (GMT -0500)
Outlaw

Weather History for KCKV - May, 2014

Change the Weather History Date:

Wednesday, May 14, 2014

  Actual Average Record
Temperature  
Mean Temperature 62 °F 66 °F  
Max Temperature 70 °F 77 °F 91 °F (1962)
Min Temperature 53 °F 55 °F 36 °F (1971)
Degree Days  
Heating Degree Days 4 2  
Month to date heating degree days 45  
Since 1 July heating degree days 3990  
Cooling Degree Days 0 3  
Month to date cooling degree days 31  
Year to date cooling degree days 67  
Growing Degree Days 12 (Base 50)    
Moisture  
Dew Point 58 °F    
Average Humidity 91    
Maximum Humidity 94    
Minimum Humidity 84    
Precipitation  
Precipitation 0.29 in 0.21 in 2.02 in (1968)
Month to date precipitation 3.11  
Year to date precipitation 19.13  
Sea Level Pressure  
Sea Level Pressure 29.97 in    
Wind  
Wind Speed 9 mph (North)    
Max Wind Speed 16 mph    
Max Gust Speed 21 mph    
Visibility 6 miles    
Events Fog , Rain , Thunderstorm    
T = Trace of Precipitation, MM = Missing Value Source: NWS Daily Summary

Daily Weather History Graph

Daily Weather History Graph

Search for Another Location

Airport or City:

Trip Planner

Search our weather history database for the weather conditions in past years. The results will help you decide how hot, cold, wet, or windy it might be!

Date:

Astronomy

May. 14, 2014 Rise Set
Actual Time 5:43 AM CDT 7:49 PM CDT
Civil Twilight 5:14 AM CDT 8:17 PM CDT
Nautical Twilight 4:39 AM CDT 8:53 PM CDT
Astronomical Twilight 4:01 AM CDT 9:31 PM CDT
Moon 7:55 PM CDT (5/14) 5:40 AM CDT (5/14)
Length of Visible Light 15h 03m
Length of Day
14h 05m
Full, 100% of the Moon is Illuminated
May 14
Full
May 14
Full
May 21
Last Quarter
May 28
New
Jun 5
First Quarter

Hourly Weather History & Observations

Time (CDT) Temp. Dew Point Humidity Pressure Visibility Wind Dir Wind Speed Gust Speed Precip Events Conditions
12:52 AM 64.9 °F 62.1 °F 90% 30.07 in 10.0 mi North 5.8 mph - N/A   Overcast
1:52 AM 64.0 °F 61.0 °F 90% 30.07 in 5.0 mi North 9.2 mph - N/A   Overcast
2:52 AM 63.0 °F 60.1 °F 90% 30.05 in 5.0 mi North 15.0 mph 18.4 mph N/A   Overcast
3:27 AM 63.0 °F 59.0 °F 87% 30.06 in 9.0 mi North 8.1 mph - N/A   Overcast
3:52 AM 62.1 °F 59.0 °F 90% 30.06 in 10.0 mi North 9.2 mph - N/A   Overcast
4:07 AM 62.1 °F 59.0 °F 90% 30.07 in 8.0 mi North 11.5 mph - N/A   Overcast
4:52 AM 61.0 °F 57.0 °F 87% 30.05 in 9.0 mi NNE 9.2 mph - N/A   Overcast
5:00 AM 61.0 °F 57.0 °F 87% 30.08 in 9.0 mi North 8.1 mph - N/A   Overcast
5:13 AM 60.1 °F 57.0 °F 90% 30.07 in 1.8 mi North 10.4 mph - 0.00 in Rain Heavy Rain
5:25 AM 59.0 °F 57.0 °F 93% 30.07 in 1.0 mi North 9.2 mph - N/A Rain Heavy Rain
5:39 AM 59.0 °F 57.0 °F 93% 30.07 in 2.0 mi NE 8.1 mph - N/A Rain Rain
5:44 AM 59.0 °F 57.0 °F 93% 30.07 in 3.0 mi NNE 6.9 mph - N/A Rain Rain
5:52 AM 59.0 °F 57.0 °F 93% 30.05 in 4.0 mi NNE 8.1 mph - N/A Rain Light Rain
6:00 AM 59.0 °F 57.0 °F 93% 30.06 in 5.0 mi NNE 6.9 mph - 0.00 in Rain Light Rain
6:28 AM 59.0 °F 57.0 °F 93% 30.05 in 4.0 mi NNE 8.1 mph - 0.03 in   Overcast
6:52 AM 59.0 °F 57.0 °F 93% 30.05 in 6.0 mi NNE 6.9 mph - 0.06 in   Overcast
7:41 AM 59.0 °F 57.0 °F 93% 30.05 in 5.0 mi NNE 8.1 mph - 0.05 in Rain Light Rain
7:52 AM 59.0 °F 57.0 °F 93% 30.04 in 7.0 mi NNE 9.2 mph - 0.07 in Rain Light Rain
8:52 AM 59.0 °F 55.9 °F 90% 30.05 in 10.0 mi North 9.2 mph - 0.07 in   Overcast
10:52 AM 60.1 °F 55.9 °F 86% 30.01 in 10.0 mi NE 8.1 mph - N/A   Overcast
11:52 AM 61.0 °F 57.9 °F 90% 29.98 in 9.0 mi ENE 5.8 mph - N/A   Overcast
12:52 PM 63.0 °F 60.1 °F 90% 29.94 in 3.0 mi ENE 6.9 mph - N/A   Overcast
1:52 PM 66.0 °F 62.1 °F 87% 29.88 in 9.0 mi East 5.8 mph - N/A   Overcast
2:17 PM 68.0 °F 63.0 °F 84% 29.87 in 9.0 mi ESE 6.9 mph - 0.00 in   Overcast
2:52 PM 70.0 °F 64.9 °F 84% 29.84 in 9.0 mi SE 12.7 mph - 0.01 in   Overcast
3:00 PM 70.0 °F 64.9 °F 84% 29.85 in 10.0 mi SE 11.5 mph - N/A   Mostly Cloudy
4:21 PM 70.0 °F 66.9 °F 90% 29.83 in 7.0 mi SSW 4.6 mph - 0.01 in Thunderstorm Thunderstorm
4:31 PM 69.1 °F 66.0 °F 90% 29.85 in 1.2 mi North - - 0.01 in Rain , Thunderstorm Light Thunderstorms and Rain
4:38 PM 66.0 °F 64.0 °F 93% 29.86 in 0.2 mi WNW 12.7 mph - 0.01 in Fog , Rain , Thunderstorm Heavy Thunderstorms and Rain
4:45 PM 63.0 °F 61.0 °F 93% 29.88 in 0.5 mi NW 16.1 mph 20.7 mph 0.01 in Fog , Rain , Thunderstorm Heavy Thunderstorms and Rain
4:52 PM 60.1 °F 57.9 °F 93% 29.87 in 0.5 mi NW 12.7 mph - 0.01 in Fog , Rain , Thunderstorm Heavy Thunderstorms and Rain
5:04 PM 59.0 °F 57.0 °F 93% 29.87 in 1.5 mi WNW 11.5 mph - N/A Rain , Thunderstorm Thunderstorms and Rain
5:08 PM 59.0 °F 57.0 °F 93% 29.88 in 2.0 mi WNW 13.8 mph - N/A Rain Rain
5:11 PM 59.0 °F 57.0 °F 93% 29.88 in 2.0 mi WNW 12.7 mph - N/A Rain Rain
5:27 PM 57.9 °F 55.0 °F 90% 29.86 in 3.0 mi NW 15.0 mph - N/A Rain Rain
5:36 PM 57.0 °F 55.0 °F 93% 29.87 in 5.0 mi NW 12.7 mph - N/A Rain Light Rain
5:52 PM 57.0 °F 54.0 °F 89% 29.87 in 10.0 mi NW 9.2 mph - N/A   Overcast
6:52 PM 55.9 °F 53.1 °F 90% 29.89 in 10.0 mi WNW 10.4 mph - 0.04 in   Overcast
7:52 PM 54.0 °F 52.0 °F 93% 29.92 in 10.0 mi WNW 9.2 mph - N/A   Overcast
8:52 PM 54.0 °F 52.0 °F 93% 29.93 in 7.0 mi WNW 5.8 mph - 0.01 in   Overcast
10:50 PM 53.6 °F 51.8 °F 94% 29.94 in 9.0 mi WNW 8.1 mph - N/A   Overcast
10:52 PM 53.1 °F 51.1 °F 93% 29.94 in 9.0 mi WNW 8.1 mph - N/A   Overcast
11:52 PM 53.1 °F 51.1 °F 93% 29.95 in 10.0 mi WNW 8.1 mph - 0.02 in Rain Light Rain